GW7021 Weather Reports


Display with metric or nautical units.
time (UTC)temp
F
wind
direction
speed
MPH
gust
MPH
rain 1hr
in
rain 24hr
in
rain mn
in
humidity
%
barometer
mb
20260906075503 88 264 4.0 6.0 0.00 0.00 0.00 32 1019.0
20260906075003 87 291 5.0 7.0 0.00 0.00 0.00 33 1019.1
20260906074003 86 358 4.0 5.0 0.00 0.00 0.00 35 1019.1
20260906073503 86 8 6.0 8.0 0.00 0.00 0.00 35 1018.9
20260906072504 85 313 5.0 7.0 0.00 0.00 0.00 37 1018.8
20260906072004 84 297 5.0 7.0 0.00 0.00 0.00 37 1018.8
20260906071504 84 301 6.0 7.0 0.00 0.00 0.00 38 1018.7
20260906070503 84 271 5.0 7.0 0.00 0.00 0.00 38 1018.7
20260906070004 83 274 5.0 6.0 0.00 0.00 0.00 40 1018.6
20260906065503 82 278 5.0 6.0 0.00 0.00 0.00 40 1018.8
20260906065004 82 292 5.0 6.0 0.00 0.00 0.00 40 1018.6
20260906064003 81 321 5.0 7.0 0.00 0.00 0.00 44 1018.6
20260906063003 80 310 4.0 4.0 0.00 0.00 0.00 45 1018.7
20260906061004 77 249 2.0 3.0 0.00 0.00 0.00 52 1018.4
20260906060504 77 222 3.0 4.0 0.00 0.00 0.00 53 1018.4
20260906060004 76 222 3.0 4.0 0.00 0.00 0.00 52 1018.4
20260906055003 74 237 3.0 4.0 0.00 0.00 0.00 56 1018.4
20260906054504 74 222 3.0 3.0 0.00 0.00 0.00 56 1018.4
20260906053504 72 248 2.0 3.0 0.00 0.00 0.00 61 1018.3
20260906053003 72 230 3.0 4.0 0.00 0.00 0.00 63 1018.4
20260906052504 71 221 3.0 4.0 0.00 0.00 0.00 64 1018.4
20260906052004 70 250 3.0 4.0 0.00 0.00 0.00 65 1018.3
20260906051504 69 293 3.0 4.0 0.00 0.00 0.00 67 1018.3
20260906051004 69 327 3.0 4.0 0.00 0.00 0.00 67 1018.3
20260906050504 68 316 3.0 4.0 0.00 0.00 0.00 66 1018.2
20260906050004 68 297 3.0 4.0 0.00 0.00 0.00 65 1018.1
20260906045003 67 312 4.0 5.0 0.00 0.00 0.00 69 1018.1
20260906044503 65 327 3.0 5.0 0.00 0.00 0.00 71 1018.1
20260906044004 65 346 2.0 2.0 0.00 0.00 0.00 72 1018.0
20260906043504 64 26 2.0 2.0 0.00 0.00 0.00 72 1018.0
20260906043004 64 49 2.0 2.0 0.00 0.00 0.00 72 1018.0
20260906042504 64 61 2.0 2.0 0.00 0.00 0.00 74 1017.9
20260906041004 63 170 0.0 2.0 0.00 0.00 0.00 77 1017.8
20260906040503 64 29 1.0 2.0 0.00 0.00 0.00 73 1017.6
20260906040004 64 47 2.0 2.0 0.00 0.00 0.00 73 1017.4
20260906035503 63 80 2.0 2.0 0.00 0.00 0.00 78 1017.4
20260906035004 63 129 1.0 2.0 0.00 0.00 0.00 79 1017.5
20260906034504 63 119 2.0 2.0 0.00 0.00 0.00 76 1017.5
20260906034005 65 74 1.0 2.0 0.00 0.00 0.00 71 1017.4
20260906033504 65 55 2.0 2.0 0.00 0.00 0.00 72 1017.4
20260906032504 64 82 2.0 3.0 0.00 0.00 0.00 75 1017.2
20260906031504 64 188 3.0 4.0 0.00 0.00 0.00 74 1017.2
20260906031004 64 169 4.0 5.0 0.00 0.00 0.00 72 1017.1
20260906030504 66 48 4.0 6.0 0.00 0.00 0.00 69 1017.2
20260906030004 66 40 4.0 6.0 0.00 0.00 0.00 67 1017.0
20260906025504 65 40 3.0 4.0 0.00 0.00 0.00 72 1017.1
20260906025004 64 58 3.0 4.0 0.00 0.00 0.00 75 1017.0
20260906024505 64 94 3.0 3.0 0.00 0.00 0.00 77 1017.1
20260906024005 64 114 3.0 3.0 0.00 0.00 0.00 76 1017.0
20260906023004 64 81 2.0 3.0 0.00 0.00 0.00 76 1017.0
20260906022504 64 31 2.0 3.0 0.00 0.00 0.00 75 1017.0
20260906022004 64 267 1.0 2.0 0.00 0.00 0.00 74 1017.0
20260906021004 65 322 2.0 3.0 0.00 0.00 0.00 73 1017.0
20260906020504 65 352 2.0 3.0 0.00 0.00 0.00 74 1017.1
20260906020005 66 24 2.0 3.0 0.00 0.00 0.00 73 1017.2
20260906015504 66 71 2.0 2.0 0.00 0.00 0.00 74 1017.2
20260906015004 65 83 2.0 2.0 0.00 0.00 0.00 74 1017.4
20260906014504 65 64 2.0 2.0 0.00 0.00 0.00 76 1017.5
20260906014004 65 50 2.0 2.0 0.00 0.00 0.00 76 1017.3
20260906013504 65 88 1.0 2.0 0.00 0.00 0.00 76 1017.5
20260906013004 65 191 2.0 3.0 0.00 0.00 0.00 75 1017.3
20260906012504 65 214 2.0 3.0 0.00 0.00 0.00 76 1017.4
20260906012005 65 98 2.0 6.0 0.00 0.00 0.00 74 1017.4
20260906011504 66 67 3.0 6.0 0.00 0.00 0.00 73 1017.4
20260906011004 66 25 2.0 3.0 0.00 0.00 0.00 73 1017.4
20260906010504 66 3 2.0 2.0 0.00 0.00 0.00 76 1017.4
20260906005504 64 95 1.0 2.0 0.00 0.00 0.00 79 1017.6
20260906005005 64 135 1.0 2.0 0.00 0.00 0.00 79 1017.5
20260906004005 64 122 2.0 2.0 0.00 0.00 0.00 78 1017.5
20260906003504 65 108 1.0 2.0 0.00 0.00 0.00 77 1017.6
20260906003004 65 181 0.0 1.0 0.00 0.00 0.00 77 1017.7
20260906002504 65 147 1.0 3.0 0.00 0.00 0.00 77 1017.7
20260906002004 66 123 2.0 3.0 0.00 0.00 0.00 77 1017.6
20260906001504 66 118 2.0 3.0 0.00 0.00 0.00 77 1017.7
20260906001004 66 136 2.0 2.0 0.00 0.00 0.00 78 1017.7
20260906000504 66 108 2.0 2.0 0.00 0.00 0.00 78 1017.8
20260905235505 66 333 2.0 2.0 0.00 0.00 0.00 79 1017.9
20260905235005 66 250 2.0 2.0 0.00 0.00 0.00 78 1018.0
20260905234504 66 200 1.0 3.0 0.00 0.00 0.00 77 1017.9
20260905234004 67 115 2.0 4.0 0.00 0.00 0.00 76 1017.8
20260905233504 67 114 3.0 4.0 0.00 0.00 0.00 77 1017.9
20260905233005 67 125 2.0 4.0 0.00 0.00 0.00 77 1018.0
20260905232505 67 126 2.0 2.0 0.00 0.00 0.00 76 1018.0
20260905231504 67 157 1.0 2.0 0.00 0.00 0.00 75 1018.0
20260905231004 67 178 1.0 2.0 0.00 0.00 0.00 75 1018.1
20260905230504 67 184 0.0 2.0 0.00 0.00 0.00 73 1018.1
20260905230004 68 270 0.0 1.0 0.00 0.00 0.00 73 1018.1
20260905225504 68 270 0.0 1.0 0.00 0.00 0.00 74 1018.0
20260905225004 68 270 1.0 2.0 0.00 0.00 0.00 75 1018.1
20260905224004 69 332 1.0 2.0 0.00 0.00 0.00 72 1018.1
20260905223504 70 122 1.0 2.0 0.00 0.00 0.00 72 1018.2
20260905223004 70 143 2.0 2.0 0.00 0.00 0.00 72 1018.2
20260905222005 70 83 2.0 2.0 0.00 0.00 0.00 71 1018.3
20260905221505 70 53 1.0 2.0 0.00 0.00 0.00 72 1018.5
20260905221005 70 60 0.0 2.0 0.00 0.00 0.00 71 1018.4
20260905220504 69 90 0.0 1.0 0.00 0.00 0.00 72 1018.5
20260905220004 69 0 0.0 0.0 0.00 0.00 0.00 71 1018.5
20260905215505 70 90 0.0 1.0 0.00 0.00 0.00 71 1018.4
20260905215004 70 84 1.0 2.0 0.00 0.00 0.00 71 1018.5
20260905214004 70 102 2.0 2.0 0.00 0.00 0.00 72 1018.5
20260905213504 70 127 1.0 2.0 0.00 0.00 0.00 72 1018.5
20260905213004 71 158 1.0 2.0 0.00 0.00 0.00 72 1018.5
20260905212504 71 139 1.0 2.0 0.00 0.00 0.00 72 1018.6
20260905212012 71 130 2.0 2.0 0.00 0.00 0.00 71 1018.6
20260905211505 71 125 2.0 2.0 0.00 0.00 0.00 71 1018.7
20260905210505 72 123 2.0 3.0 0.00 0.00 0.00 72 1018.8
20260905210010 72 149 1.0 2.0 0.00 0.00 0.00 72 1018.7
20260905205504 72 140 1.0 2.0 0.00 0.00 0.00 72 1018.9
20260905204511 72 94 2.0 3.0 0.00 0.00 0.00 72 1018.9
20260905204005 72 94 3.0 3.0 0.00 0.00 0.00 70 1018.8
20260905203505 72 99 3.0 3.0 0.00 0.00 0.00 72 1018.8
20260905203005 72 105 2.0 3.0 0.00 0.00 0.00 72 1018.8
20260905202506 72 73 2.0 3.0 0.00 0.00 0.00 71 1018.9
20260905202011 73 57 2.0 3.0 0.00 0.00 0.00 68 1019.0
20260905201504 72 94 1.0 3.0 0.00 0.00 0.00 71 1018.9
20260905201006 73 100 2.0 3.0 0.00 0.00 0.00 70 1018.9
20260905200505 73 102 2.0 3.0 0.00 0.00 0.00 70 1019.0
20260905200004 72 108 2.0 2.0 0.00 0.00 0.00 70 1018.9
20260905195505 73 133 2.0 2.0 0.00 0.00 0.00 69 1018.9
20260905195005 73 131 2.0 2.0 0.00 0.00 0.00 67 1018.9
20260905194506 74 42 2.0 2.0 0.00 0.00 0.00 66 1018.9
20260905194005 75 38 3.0 4.0 0.00 0.00 0.00 62 1018.9
20260905193504 75 47 3.0 4.0 0.00 0.00 0.00 63 1019.0
20260905192505 74 88 2.0 2.0 0.00 0.00 0.00 72 1018.9
20260905192006 75 335 1.0 2.0 0.00 0.00 0.00 70 1019.1
20260905191505 77 19 1.0 2.0 0.00 0.00 0.00 71 1019.0
20260905191005 77 15 2.0 2.0 0.00 0.00 0.00 71 1018.9
20260905190505 77 341 2.0 2.0 0.00 0.00 0.00 71 1019.0
20260905190005 77 327 2.0 2.0 0.00 0.00 0.00 70 1018.9
20260905185005 77 320 2.0 2.0 0.00 0.00 0.00 70 1018.8
20260905184005 77 331 2.0 3.0 0.00 0.00 0.00 67 1018.9
20260905183505 78 153 2.0 3.0 0.00 0.00 0.00 67 1018.6
20260905182012 78 122 4.0 7.0 0.00 0.00 0.00 65 1018.4
20260905181505 78 118 4.0 4.0 0.00 0.00 0.00 63 1018.4
20260905181005 78 118 3.0 4.0 0.00 0.00 0.00 61 1018.3
20260905180007 79 133 2.0 4.0 0.00 0.00 0.00 57 1018.3
20260905175505 79 131 4.0 5.0 0.00 0.00 0.00 57 1018.1
20260905175005 80 135 5.0 6.0 0.00 0.00 0.00 56 1018.2
20260905174505 80 136 5.0 6.0 0.00 0.00 0.00 55 1018.1
20260905174005 80 130 6.0 7.0 0.00 0.00 0.00 54 1018.0
20260905173505 81 129 7.0 8.0 0.00 0.00 0.00 53 1017.9
20260905173005 81 133 6.0 8.0 0.00 0.00 0.00 52 1017.9
20260905172505 81 133 6.0 7.0 0.00 0.00 0.00 52 1017.9
20260905172005 81 134 6.0 7.0 0.00 0.00 0.00 52 1017.7
20260905171005 82 128 7.0 9.0 0.00 0.00 0.00 49 1017.7
20260905170005 82 122 6.0 8.0 0.00 0.00 0.00 49 1017.7
20260905165506 82 116 7.0 8.0 0.00 0.00 0.00 51 1017.5
20260905165005 83 121 7.0 9.0 0.00 0.00 0.00 52 1017.6
20260905164505 83 122 7.0 9.0 0.00 0.00 0.00 52 1017.6
20260905164006 83 132 8.0 11.0 0.00 0.00 0.00 52 1017.7
20260905163505 84 144 8.0 11.0 0.00 0.00 0.00 51 1017.6
20260905163005 84 140 7.0 11.0 0.00 0.00 0.00 50 1017.5
20260905162505 85 134 6.0 10.0 0.00 0.00 0.00 48 1017.6
20260905162005 85 140 7.0 10.0 0.00 0.00 0.00 50 1017.4
20260905161506 86 145 9.0 12.0 0.00 0.00 0.00 51 1017.6
20260905161005 86 140 11.0 12.0 0.00 0.00 0.00 51 1017.4
20260905160505 87 135 9.0 11.0 0.00 0.00 0.00 51 1017.3
20260905160005 88 137 8.0 11.0 0.00 0.00 0.00 49 1017.3
20260905155505 88 140 9.0 11.0 0.00 0.00 0.00 48 1017.3
20260905155005 89 144 10.0 12.0 0.00 0.00 0.00 41 1017.3
20260905154505 90 149 9.0 12.0 0.00 0.00 0.00 35 1017.3
20260905154006 92 141 6.0 11.0 0.00 0.00 0.00 30 1017.2
20260905153505 93 58 5.0 6.0 0.00 0.00 0.00 20 1017.1
20260905153005 93 39 6.0 9.0 0.00 0.00 0.00 20 1017.0
20260905152506 93 41 8.0 11.0 0.00 0.00 0.00 20 1017.0
20260905151506 94 83 7.0 15.0 0.00 0.00 0.00 20 1017.1
20260905150503 93 31 10.0 14.0 0.00 0.00 0.00 20 1017.1
20260905150004 94 15 9.0 14.0 0.00 0.00 0.00 20 1017.0
20260905145504 94 344 7.0 10.0 0.00 0.00 0.00 20 1016.8
20260905144503 94 64 6.0 11.0 0.00 0.00 0.00 20 1017.1
20260905144004 94 67 6.0 8.0 0.00 0.00 0.00 12 1016.9
20260905143004 94 20 8.0 15.0 0.00 0.00 0.00 11 1017.0
20260905142504 93 35 11.0 15.0 0.00 0.00 0.00 12 1017.0
20260905142004 93 47 10.0 15.0 0.00 0.00 0.00 11 1016.9
20260905141503 94 39 10.0 15.0 0.00 0.00 0.00 11 1017.0
20260905141004 94 27 11.0 15.0 0.00 0.00 0.00 11 1016.9
20260905140503 94 20 12.0 17.0 0.00 0.00 0.00 12 1017.0
20260905140004 94 32 11.0 17.0 0.00 0.00 0.00 20 1017.0
20260905135004 94 8 12.0 18.0 0.00 0.00 0.00 20 1017.0
20260905134504 93 11 14.0 18.0 0.00 0.00 0.00 20 1017.0
20260905133504 94 4 12.0 18.0 0.00 0.00 0.00 20 1016.9
20260905133004 94 3 12.0 18.0 0.00 0.00 0.00 20 1016.9
20260905131504 93 21 13.0 17.0 0.00 0.00 0.00 20 1017.4
20260905131004 93 17 14.0 18.0 0.00 0.00 0.00 20 1017.1
20260905130505 93 13 15.0 18.0 0.00 0.00 0.00 20 1017.3
20260905130004 93 2 14.0 17.0 0.00 0.00 0.00 20 1017.2
20260905125504 93 351 14.0 17.0 0.00 0.00 0.00 20 1017.4
20260905125004 93 337 14.0 18.0 0.00 0.00 0.00 20 1017.3
20260905124004 93 2 16.0 19.0 0.00 0.00 0.00 20 1017.4
20260905123503 93 6 16.0 21.0 0.00 0.00 0.00 20 1017.4
20260905123004 93 355 17.0 22.0 0.00 0.00 0.00 21 1017.5
20260905122004 92 341 15.0 19.0 0.00 0.00 0.00 21 1017.6
20260905121504 92 337 15.0 18.0 0.00 0.00 0.00 21 1017.5
20260905120504 93 347 14.0 21.0 0.00 0.00 0.00 21 1017.7
20260905120004 92 355 14.0 17.0 0.00 0.00 0.00 21 1017.8
20260905115504 92 22 14.0 17.0 0.00 0.00 0.00 21 1017.8
20260905115004 92 9 14.0 20.0 0.00 0.00 0.00 21 1017.8
20260905114504 92 351 13.0 20.0 0.00 0.00 0.00 21 1017.8
20260905114004 92 349 15.0 22.0 0.00 0.00 0.00 21 1018.0
20260905113504 92 6 17.0 22.0 0.00 0.00 0.00 21 1018.0
20260905112505 92 342 17.0 21.0 0.00 0.00 0.00 21 1018.0
20260905112004 92 346 18.0 23.0 0.00 0.00 0.00 20 1018.1
20260905111504 92 7 19.0 23.0 0.00 0.00 0.00 21 1018.1
20260905111005 92 9 21.0 23.0 0.00 0.00 0.00 21 1018.1
20260905110504 92 1 20.0 23.0 0.00 0.00 0.00 21 1018.2
20260905110004 92 355 18.0 21.0 0.00 0.00 0.00 20 1018.1
20260905105504 92 349 19.0 23.0 0.00 0.00 0.00 20 1018.1
20260905105005 92 344 17.0 23.0 0.00 0.00 0.00 21 1018.0
20260905104004 92 353 18.0 21.0 0.00 0.00 0.00 20 1018.2
20260905103504 92 1 16.0 21.0 0.00 0.00 0.00 21 1018.1
20260905103005 91 7 17.0 22.0 0.00 0.00 0.00 20 1018.1
20260905102504 91 353 17.0 22.0 0.00 0.00 0.00 21 1018.2
20260905102004 91 347 16.0 19.0 0.00 0.00 0.00 20 1018.2
20260905101504 91 4 17.0 22.0 0.00 0.00 0.00 21 1018.2
20260905101005 92 4 17.0 22.0 0.00 0.00 0.00 21 1018.2
20260905100504 91 340 18.0 22.0 0.00 0.00 0.00 21 1018.2
20260905095504 90 346 18.0 23.0 0.00 0.00 0.00 24 1018.1
20260905095004 90 343 17.0 23.0 0.00 0.00 0.00 21 1018.2
20260905094006 90 347 13.0 17.0 0.00 0.00 0.00 24 1018.4
20260905093504 90 355 14.0 21.0 0.00 0.00 0.00 25 1018.3
20260905093004 90 353 16.0 21.0 0.00 0.00 0.00 25 1018.4
20260905092504 90 349 17.0 21.0 0.00 0.00 0.00 25 1018.4
20260905092004 90 4 16.0 21.0 0.00 0.00 0.00 25 1018.5
20260905091004 90 347 15.0 22.0 0.00 0.00 0.00 25 1018.4
20260905090505 89 1 13.0 19.0 0.00 0.00 0.00 25 1018.6
20260905090005 89 344 12.0 17.0 0.00 0.00 0.00 24 1018.5
20260905085504 89 336 12.0 17.0 0.00 0.00 0.00 25 1018.6
20260905085004 89 346 14.0 18.0 0.00 0.00 0.00 25 1018.7
20260905084504 89 357 15.0 18.0 0.00 0.00 0.00 24 1018.8
20260905082504 89 348 18.0 21.0 0.00 0.00 0.00 25 1018.7
20260905082005 88 354 18.0 21.0 0.00 0.00 0.00 25 1018.7
20260905081504 88 359 16.0 21.0 0.00 0.00 0.00 25 1018.6
20260905081004 88 3 16.0 23.0 0.00 0.00 0.00 26 1018.7
20260905080504 88 2 16.0 23.0 0.00 0.00 0.00 29 1018.7
20260905080005 88 358 16.0 19.0 0.00 0.00 0.00 29 1018.6